{"data":{"norad_id":36122,"epoch":"2026-09-20T04:00:00.679392Z","epoch_age_seconds":43463,"freshness":"FRESH","line1":"1 36122U 09072B   26263.16667453 -.00000190  00000+0 -38120-3 0  9997","line2":"2 36122 100.4129 215.5157 0007903  21.7777 338.3670 13.16440322805503","mean_motion":13.16440322,"eccentricity":0.0007903,"inclination_deg":100.4129,"raan_deg":215.5157,"arg_perigee_deg":21.7777,"mean_anomaly_deg":338.367,"bstar":-0.0003812,"rev_number":80550,"period_min":109.38589284566,"perigee_km":1192.3595401964,"apogee_km":1204.3349311793,"semimajor_km":7576.4842356879,"source":"CELESTRAK","updated_at":"2026-09-20T09:00:45.231251Z"}}